Other Public Products
Issued by NWS Grand Forks, ND

Home | Current Version | Previous Version | Graphics & Text | Print | Product List | Glossary On
Versions: 1 2 3 4 5 6 7 8 9 10 11 12 13 14 15 16 17 18 19 20 21 22 23 24 25 26 27 28 29 30 31 32 33 34 35 36 37 38 39 40 41 42 43 44 45 46 47 48 49 50
000
FPUS83 KFGF 080310
OPUFGF
PRAIRIE TO PINES WEATHER ROUNDUP
NATIONAL WEATHER SERVICE EASTERN NORTH DAKOTA/GRAND FORKS ND
900 PM CST SUN FEB 07 2016

 **SATELLITE DATA USED TO AUGMENT SKY COVER AT AUTOMATED STATIONS**
 *****  WEATHER ACROSS EASTERN NORTH DAKOTA  *****

CITY           SKY/WX    TMP DP  RH WIND       PRES   REMARKS
GRAND FORKS    LGT SNOW  15   7  70 N35G43    30.01R BLWGSNOWWCI  -7
GRAND FORKS AF LGT SNOW  14   9  79 N25G33    30.01S WCI  -5
GRAND CITY NWS   N/A     12 N/A N/A N33         N/A  WCI -10
BUXTON           N/A     13  13  98 NW24G40     N/A  WCI  -6
DEVILS LAKE    FLURRIES  19  14  81 N29G36    30.03S WCI   0
FARGO          LGT SNOW  15  10  80 N30G38    30.00R VSB 1   WCI  -5
WAHPETON ARPT  CLOUDY    18  12  79 N18G29    29.97R WCI   2
$$

 *****  WEATHER ACROSS CENTRAL AND WESTERN NORTH DAKOTA  *****

CITY           SKY/WX    TMP DP  RH WIND       PRES   REMARKS
JAMESTOWN      LGT SNOW  22  16  78 NW31G45   30.01R WCI   4
BISMARCK       MOCLDY    33  19  56 N29G41    30.13R WCI  19
MINOT          PTCLDY    29  16  58 NW24G36   30.14R WCI  15
MINOT AFB      MOCLDY    28  20  72 NW25G32   30.14R WCI  13
GARRISON         N/A     28  19  69 NW32G39   30.16R WCI  12
WILLISTON      CLEAR     30  19  63 NW20G29   30.29R WCI  17
DICKINSON      CLEAR     28  13  53 NW28G37   30.21R WCI  13
HETTINGER      CLEAR     29  14  53 NW28G33   30.23R WCI  14
$$

 *****  OTHER OBSERVATIONS NORTHEAST NORTH DAKOTA  *****

CITY           SKY/WX    TMP DP  RH WIND       PRES   REMARKS
WALHALLA       FLURRIES  14  12  92 N21G31    30.06R WCI  -4
LANGDON        FLURRIES  14   9  79 N22       30.00S WCI  -4
CAVALIER       LGT SNOW  14  10  85 N23G30    30.05R WCI  -5
GRAFTON        CLOUDY    12   9  85 N26G35    30.04R FOG     WCI  -8
CANDO          NOT AVBL
FORT TOTTEN      N/A     19  15  83 N14       29.95S WCI   6
ROLLA          LGT SNOW  18  14  86 N29G41    30.06R WCI  -2
RUGBY          CLOUDY    23  18  80 NW29G37   30.07R WCI   6
 ***** THE ABOVE OBSERVATIONS ARE NON NWS ARE NOT QUALITY
        CONTROLLED AND MAY MIS-REPORT RAIN FOR SNOW...
$$

 *****  OTHER OBSERVATIONS SOUTHEAST NORTH DAKOTA *****

CITY           SKY/WX    TMP DP  RH WIND       PRES   REMARKS
COOPERSTOWN    NOT AVBL
VALLEY CITY    FLURRIES  19  14  79 N32G39    30.01S WCI   0
OAKES          CLOUDY    23  16  74 N38G45    29.99S WCI   4
GWINNER        CLOUDY    23  18  80 N23G33    30.00R WCI   7
SHEYENNE NWR     N/A     19  14  80 N16       29.95S WCI   4
BUFFALO          N/A     17  13  84 N22         N/A  WCI  -1
WYNDMERE       NOT AVBL
 ***** THE ABOVE OBSERVATIONS ARE NON NWS ARE NOT QUALITY
       CONTROLLED AND MAY MIS-REPORT RAIN FOR SNOW...
$$

  *****  WEATHER ACROSS NORTHERN MINNESOTA  *****

CITY           SKY/WX    TMP DP  RH WIND       PRES   REMARKS
FLAG ISLAND    LGT SNOW   7   1  78 NW23      29.86R WCI -14
WARROAD        LGT SNOW   5   1  85 NW16G25   29.89R WCI -14
ROSEAU         LGT SNOW   7   1  78 NW22      29.92R WCI -14
HALLOCK        LGT SNOW  10   7  85 N24G32    30.00R WCI -10
THF RVR FALLS  NOT AVBL
HALSTAD        NOT AVBL
FOSSTON        LGT SNOW   7   3  85 NW18      29.90R WCI -12
BAUDETTE       LGT SNOW   6   1  80 NW24      29.83R WCI -16
WASKISH        LGT SNOW   9   3  78 NW17G25   29.83R WCI -10
CROOKSTON      HVY SNOW  10   9  92 N37G45    29.99R VSB<1/4 WCI -14
$$
  *****  WEATHER ACROSS CENTRAL AND WEST MINNESOTA  *****

CITY           SKY/WX    TMP DP  RH WIND       PRES   REMARKS
BEMIDJI        LGT SNOW   8   3  82 NW17      29.82R WCI -11
PARK RAPIDS    LGT SNOW  10   3  73 NW23G33   29.80S WCI -10
WADENA         LGT SNOW   9   3  78 NW21G28   29.83R WCI -11
DETROIT LAKES  LGT SNOW  12   9  85 N26G38    29.89R WCI  -8
MOORHEAD       MIX PCPN  12  10  92 N32G39    29.99R VSB 1/2 WCI -10
FERGUS FALLS   LGT SNOW  14  10  85 N25G43    29.95R WCI  -5
ELBOW LAKE     CLOUDY    14   9  80 NW31G44   29.90S FOG     WCI  -8
MORRIS MN      LGT SNOW  18  12  79 N26G38    29.90R WCI  -1
STAPLES        LGT SNOW  10   7  85 NW23G29   29.80S WCI -10
WHEATON        LGT SNOW  19  18  93 NW26G36   29.97R WCI   1
$$
  *****  WEATHER ELSEWHERE ACROSS MINNESOTA  *****

CITY           SKY/WX    TMP DP  RH WIND       PRES   REMARKS
DULUTH         LGT SNOW  22  17  81 NW18G26   29.59R BLWGSNOWWCI   7
INTRNTL FALLS  LGT SNOW  13   9  84 W13       29.74R FOG     WCI  -2
ELY            LGT SNOW  27  27 100 N3        29.57R
CLOQUET        FLURRIES  21  16  79 W15G22    29.62R WCI   8
BRAINERD       LGT SNOW  13   7  77 NW16G28   29.76R WCI  -3
HIBBING        LGT SNOW  16  12  84 NW24G33   29.65R FOG     WCI  -2
ALEXANDRIA     LGT SNOW  13   7  77 N20G33    29.84R WCI  -5
SAINT CLOUD    FLURRIES  16   8  71 NW21G32   29.77S WCI  -1
MINNEAPOLIS    LGT SNOW  20  12  71 NW28G36   29.75R WCI   2
$$

  *****  WEATHER ACROSS SOUTH DAKOTA  *****

CITY           SKY/WX    TMP DP  RH WIND       PRES   REMARKS
SIOUX FALLS    LGT SNOW  25  19  78 N28       29.95S WCI   9
BROOKINGS      FLURRIES  22  16  78 N28G36    29.91F WCI   4
WATERTOWN      LGT SNOW  21  15  78 NW32G38   29.93R WCI   2
HURON          PTCLDY    27  20  75 NW22      30.02R WCI  13
SISSETON         N/A     20  16  84 N24G35    29.95S WCI   3
ABERDEEN       CLOUDY    28  18  66 N20G31    30.03R WCI  15
MITCHELL       PTCLDY    29  22  75 NW15      30.05R WCI  18
PIERRE         CLEAR     33  16  49 NW21G32   30.14R WCI  21
MOBRIDGE       CLOUDY    35  16  45 NW26G41   30.07S WCI  22
RAPID CITY     CLEAR     32  10  40 NW32G40   30.25S WCI  17
$$

  *****  SOME WEATHER IN NEARBY STATES *****

CITY           SKY/WX    TMP DP  RH WIND       PRES   REMARKS
GLASGOW MT     CLEAR     27  17  66 NW9       30.40R WCI  18
GREAT FALLS MT CLOUDY    31  16  54 SW10      30.41F WCI  22
CHEYENNE WY    CLEAR     20  13  74 N15       30.32R WCI   6
SCOTTSBLUFF NE CLOUDY    27  14  58 NW15      30.36R WCI  15
OMAHA NE       MIX PCPN  34  28  79 NW16G25   29.98S WCI  24
DES MOINES IA  FLURRIES  34  29  82 NW22G28   29.85S WCI  22
DAVENPORT IA   CLEAR     33  27  78 W13       29.77F WCI  24
CHICAGO IL     PTCLDY    35  27  72 W12       29.72F
EAU CLAIRE WI  LGT SNOW  28  23  81 W12G23    29.64R WCI  18
LA CROSSE WI   CLOUDY    36  30  79 W12       29.64F
$$

  *****  SOME NATIONAL WEATHER *****

CITY           SKY/WX    TMP DP  RH WIND       PRES   REMARKS
LA GUARDIA NY  CLOUDY    40  31  70 NE10      29.96F
RALEIGH NC     CLOUDY    41  22  46 VRB7      29.86S
ATLANTA GA     PTCLDY    45  21  38 W7        29.99S
NEW ORLEANS LA CLEAR     49  31  49 SW12      30.18S
OKLAHOMA CITY  PTCLDY    46  22  38 NW20G25   30.24R
ALBUQUERQUE NM CLEAR     45  18  34 N8        30.36R
SALT LAKE CITY PTCLDY    31  26  82 NW9       30.63R HAZE    WCI  23
LOS ANGELES CA CLEAR     71  23  16 CALM      30.09R
BOISE ID       CLEAR     39  33  79 CALM      30.63R
SEATTLE WA     PTCLDY    45  37  73 N8        30.52S
$$

*** WEATHER ACROSS MANITOBA...SASKATCHEWAN AND ONTARIO ***
                ***ONTARIO***

CITY           SKY/WX    TMP DP  RH WIND       PRES   REMARKS
GERALDTON      FLURRIES   1  -4  78 NE13      29.75R WCI -16
THUNDER BAY    LGT SNOW  14  10  85 N6        29.66R WCI   5
SIOUX LOOKOUT  LGT SNOW   7   3  85 NE6       29.76R WCI  -3
TORONTO        MOCLDY    39  32  75 E9        29.83F
BIG TROUT LK   CLEAR    -11 -17  77 E9        30.06F WCI -29
PICKLE LAKE    NOT AVBL
DRYDEN         FLURRIES  10   9  92 N8        29.74R WCI  -1
KENORA         LGT SNOW   7   1  78 NW17G25   29.81R DRFTSNOWWCI -12
$$
                *** MANITOBA***

CITY           SKY/WX    TMP DP  RH WIND       PRES   REMARKS
BRANDON        CLOUDY    19  12  73 N24G35    30.11R WCI   2
DAUPHIN        FLURRIES  19  12  73 NW12G17   30.15R WCI   7
ISLAND LAKE    FLURRIES   0  -6  78 NW6       30.02F WCI -12
PILOT MOUND      N/A     16  10  79 NW22G28     N/A  WCI  -2
THE PAS        FLURRIES  12   5  73 NW15      30.19R WCI  -4
THOMPSON       NOT AVBL
WINNIPEG       LGT SNOW   9   3  78 N23G29    30.05R BLWGSNOWWCI -12
LYNN LAKE      FLURRIES   1  -2  85 NW12G20   30.14R WCI -15
CHURCHILL      FLURRIES  -8 -13  77 S5        30.20R WCI -19
GILLAM         LGT SNOW  -8 -13  77 N6        30.13R WCI -21
$$
                ***SASKATCHEWAN***

CITY           SKY/WX    TMP DP  RH WIND       PRES   REMARKS
ESTEVAN        PTCLDY    25  19  80 NW20G28   30.24R WCI  11
KINDERSLEY     PTCLDY    19  16  86 W8        30.36S WCI   9
LLOYDMINSTER   PTCLDY    21  16  79 W14       30.33R WCI   8
PRINCE ALBERT  CLEAR     21  16  79 N9        30.27R WCI  11
REGINA         CLEAR     25  19  80 NW16G22   30.28S WCI  12
YORKTON        CLEAR     21  16  79 NW23G30   30.17R WCC1F1C2F2C3F3C4F4C5F5C6F6C7F7C8F8C9F9CaFaCbFbCcFcCdFdCe!


USA.gov is the U.S. government's official web portal to all federal, state and local government web resources and services.